Year,Month,Day,Hour,Minute,Value (Times are PST for temperature in C)
2015,08,19,00,00,20.00
2015,08,19,00,01,20.00
2015,08,19,00,02,20.00
2015,08,19,00,03,20.00
2015,08,19,00,04,20.00
2015,08,19,00,05,20.00
2015,08,19,00,06,20.00
2015,08,19,00,07,20.00
2015,08,19,00,08,20.00
2015,08,19,00,09,20.00
2015,08,19,00,10,20.00
2015,08,19,00,11,19.90
2015,08,19,00,12,20.00
2015,08,19,00,13,19.90
2015,08,19,00,14,19.90
2015,08,19,00,15,19.90
2015,08,19,00,16,19.90
2015,08,19,00,17,19.90
2015,08,19,00,18,19.90
2015,08,19,00,19,19.90
2015,08,19,00,20,19.90
2015,08,19,00,21,19.90
2015,08,19,00,22,19.90
2015,08,19,00,23,19.90
2015,08,19,00,24,19.90
2015,08,19,00,25,19.90
2015,08,19,00,26,19.90
2015,08,19,00,27,19.80
2015,08,19,00,28,19.80
2015,08,19,00,29,19.80
2015,08,19,00,30,19.80
2015,08,19,00,31,19.80
2015,08,19,00,32,19.80
2015,08,19,00,33,19.80
2015,08,19,00,34,19.80
2015,08,19,00,35,19.70
2015,08,19,00,36,19.70
2015,08,19,00,37,19.70
2015,08,19,00,38,19.70
2015,08,19,00,39,19.70
2015,08,19,00,40,19.70
2015,08,19,00,41,19.60
2015,08,19,00,42,19.60
2015,08,19,00,43,19.60
2015,08,19,00,44,19.60
2015,08,19,00,45,19.60
2015,08,19,00,46,19.50
2015,08,19,00,47,19.50
2015,08,19,00,48,19.50
2015,08,19,00,49,19.50
2015,08,19,00,50,19.50
2015,08,19,00,51,19.40
2015,08,19,00,52,19.40
2015,08,19,00,53,19.40
2015,08,19,00,54,19.40
2015,08,19,00,55,19.40
2015,08,19,00,56,19.40
2015,08,19,00,57,19.30
2015,08,19,00,58,19.30
2015,08,19,00,59,19.30
2015,08,19,01,00,19.30
2015,08,19,01,01,19.30
2015,08,19,01,02,19.20
2015,08,19,01,03,19.20
2015,08,19,01,04,19.10
2015,08,19,01,05,19.10
2015,08,19,01,06,19.10
2015,08,19,01,07,19.10
2015,08,19,01,08,19.10
2015,08,19,01,09,19.00
2015,08,19,01,10,19.00
2015,08,19,01,11,19.00
2015,08,19,01,12,18.90
2015,08,19,01,13,18.90
2015,08,19,01,14,18.90
2015,08,19,01,15,18.90
2015,08,19,01,16,18.80
2015,08,19,01,17,18.80
2015,08,19,01,18,18.80
2015,08,19,01,19,18.80
2015,08,19,01,20,18.80
2015,08,19,01,21,18.80
2015,08,19,01,22,18.70
2015,08,19,01,23,18.70
2015,08,19,01,24,18.70
2015,08,19,01,25,18.70
2015,08,19,01,26,18.70
2015,08,19,01,27,18.70
2015,08,19,01,28,18.70
2015,08,19,01,29,18.70
2015,08,19,01,30,18.70
2015,08,19,01,31,18.60
2015,08,19,01,32,18.60
2015,08,19,01,33,18.60
2015,08,19,01,34,18.60
2015,08,19,01,35,18.60
2015,08,19,01,36,18.60
2015,08,19,01,37,18.60
2015,08,19,01,38,18.60
2015,08,19,01,39,18.50
2015,08,19,01,40,18.50
2015,08,19,01,41,18.50
2015,08,19,01,42,18.50
2015,08,19,01,43,18.40
2015,08,19,01,44,18.40
2015,08,19,01,45,18.40
2015,08,19,01,46,18.40
2015,08,19,01,47,18.40
2015,08,19,01,48,18.40
2015,08,19,01,49,18.40
2015,08,19,01,50,18.40
2015,08,19,01,51,18.30
2015,08,19,01,52,18.30
2015,08,19,01,53,18.30
2015,08,19,01,54,18.30
2015,08,19,01,55,18.30
2015,08,19,01,56,18.30
2015,08,19,01,57,18.30
2015,08,19,01,58,18.30
2015,08,19,01,59,18.20
2015,08,19,02,00,18.20
2015,08,19,02,01,18.20
2015,08,19,02,02,18.20
2015,08,19,02,03,18.20
2015,08,19,02,04,18.10
2015,08,19,02,05,18.10
2015,08,19,02,06,18.10
2015,08,19,02,07,18.10
2015,08,19,02,08,18.10
2015,08,19,02,09,18.10
2015,08,19,02,10,18.00
2015,08,19,02,11,18.00
2015,08,19,02,12,18.00
2015,08,19,02,13,17.90
2015,08,19,02,14,17.90
2015,08,19,02,15,17.90
2015,08,19,02,16,17.90
2015,08,19,02,17,17.90
2015,08,19,02,18,17.90
2015,08,19,02,19,17.80
2015,08,19,02,20,17.80
2015,08,19,02,21,17.80
2015,08,19,02,22,17.80
2015,08,19,02,23,17.80
2015,08,19,02,24,17.80
2015,08,19,02,25,17.80
2015,08,19,02,26,17.80
2015,08,19,02,27,17.80
2015,08,19,02,28,17.70
2015,08,19,02,29,17.70
2015,08,19,02,30,17.70
2015,08,19,02,31,17.70
2015,08,19,02,32,17.70
2015,08,19,02,33,17.70
2015,08,19,02,34,17.70
2015,08,19,02,35,17.70
2015,08,19,02,36,17.60
2015,08,19,02,37,17.60
2015,08,19,02,38,17.60
2015,08,19,02,39,17.60
2015,08,19,02,40,17.60
2015,08,19,02,41,17.60
2015,08,19,02,42,17.60
2015,08,19,02,43,17.60
2015,08,19,02,44,17.50
2015,08,19,02,45,17.50
2015,08,19,02,46,17.50
2015,08,19,02,47,17.50
2015,08,19,02,48,17.50
2015,08,19,02,49,17.50
2015,08,19,02,50,17.40
2015,08,19,02,51,17.40
2015,08,19,02,52,17.40
2015,08,19,02,53,17.40
2015,08,19,02,54,17.40
2015,08,19,02,55,17.40
2015,08,19,02,56,17.40
2015,08,19,02,57,17.40
2015,08,19,02,58,17.40
2015,08,19,02,59,17.40
2015,08,19,03,00,17.40
2015,08,19,03,01,17.40
2015,08,19,03,02,17.40
2015,08,19,03,03,17.40
2015,08,19,03,04,17.40
2015,08,19,03,05,17.30
2015,08,19,03,06,17.30
2015,08,19,03,07,17.30
2015,08,19,03,08,17.30
2015,08,19,03,09,17.30
2015,08,19,03,10,17.30
2015,08,19,03,11,17.30
2015,08,19,03,12,17.30
2015,08,19,03,13,17.30
2015,08,19,03,14,17.30
2015,08,19,03,15,17.30
2015,08,19,03,16,17.30
2015,08,19,03,17,17.20
2015,08,19,03,18,17.20
2015,08,19,03,19,17.20
2015,08,19,03,20,17.20
2015,08,19,03,21,17.20
2015,08,19,03,22,17.20
2015,08,19,03,23,17.20
2015,08,19,03,24,17.20
2015,08,19,03,25,17.20
2015,08,19,03,26,17.20
2015,08,19,03,27,17.20
2015,08,19,03,28,17.20
2015,08,19,03,29,17.20
2015,08,19,03,30,17.20
2015,08,19,03,31,17.20
2015,08,19,03,32,17.20
2015,08,19,03,33,17.20
2015,08,19,03,34,17.20
2015,08,19,03,35,17.20
2015,08,19,03,36,17.20
2015,08,19,03,37,17.20
2015,08,19,03,38,17.20
2015,08,19,03,39,17.20
2015,08,19,03,40,17.20
2015,08,19,03,41,17.20
2015,08,19,03,42,17.20
2015,08,19,03,43,17.20
2015,08,19,03,44,17.10
2015,08,19,03,45,17.10
2015,08,19,03,46,17.10
2015,08,19,03,47,17.10
2015,08,19,03,48,17.10
2015,08,19,03,49,17.10
2015,08,19,03,50,17.10
2015,08,19,03,51,17.10
2015,08,19,03,52,17.10
2015,08,19,03,53,17.10
2015,08,19,03,54,17.10
2015,08,19,03,55,17.10
2015,08,19,03,56,17.10
2015,08,19,03,57,17.00
2015,08,19,03,58,17.00
2015,08,19,03,59,17.00
2015,08,19,04,00,17.00
2015,08,19,04,01,17.00
2015,08,19,04,02,17.00
2015,08,19,04,03,17.00
2015,08,19,04,04,17.00
2015,08,19,04,05,16.90
2015,08,19,04,06,16.90
2015,08,19,04,07,16.90
2015,08,19,04,08,16.90
2015,08,19,04,09,16.90
2015,08,19,04,10,16.90
2015,08,19,04,11,16.90
2015,08,19,04,12,16.90
2015,08,19,04,13,16.90
2015,08,19,04,14,16.90
2015,08,19,04,15,16.90
2015,08,19,04,16,16.90
2015,08,19,04,17,16.90
2015,08,19,04,18,16.90
2015,08,19,04,19,16.90
2015,08,19,04,20,16.90
2015,08,19,04,21,16.80
2015,08,19,04,22,16.80
2015,08,19,04,23,16.80
2015,08,19,04,24,16.80
2015,08,19,04,25,16.80
2015,08,19,04,26,16.80
2015,08,19,04,27,16.80
2015,08,19,04,28,16.80
2015,08,19,04,29,16.80
2015,08,19,04,30,16.70
2015,08,19,04,31,16.70
2015,08,19,04,32,16.70
2015,08,19,04,33,16.70
2015,08,19,04,34,16.70
2015,08,19,04,35,16.70
2015,08,19,04,36,16.70
2015,08,19,04,37,16.70
2015,08,19,04,38,16.60
2015,08,19,04,39,16.60
2015,08,19,04,40,16.60
2015,08,19,04,41,16.60
2015,08,19,04,42,16.60
2015,08,19,04,43,16.60
2015,08,19,04,44,16.60
2015,08,19,04,45,16.50
2015,08,19,04,46,16.50
2015,08,19,04,47,16.50
2015,08,19,04,48,16.50
2015,08,19,04,49,16.50
2015,08,19,04,50,16.40
2015,08,19,04,51,16.40
2015,08,19,04,52,16.40
2015,08,19,04,53,16.40
2015,08,19,04,54,16.40
2015,08,19,04,55,16.40
2015,08,19,04,56,16.40
2015,08,19,04,57,16.40
2015,08,19,04,58,16.30
2015,08,19,04,59,16.30
2015,08,19,05,00,16.30
2015,08,19,05,01,16.30
2015,08,19,05,02,16.30
2015,08,19,05,03,16.30
2015,08,19,05,04,16.30
2015,08,19,05,05,16.30
2015,08,19,05,06,16.30
2015,08,19,05,07,16.20
2015,08,19,05,08,16.20
2015,08,19,05,09,16.20
2015,08,19,05,10,16.20
2015,08,19,05,11,16.20
2015,08,19,05,12,16.20
2015,08,19,05,13,16.20
2015,08,19,05,14,16.20
2015,08,19,05,15,16.20
2015,08,19,05,16,16.20
2015,08,19,05,17,16.10
2015,08,19,05,18,16.10
2015,08,19,05,19,16.10
2015,08,19,05,20,16.10
2015,08,19,05,21,16.10
2015,08,19,05,22,16.10
2015,08,19,05,23,16.10
2015,08,19,05,24,16.10
2015,08,19,05,25,16.10
2015,08,19,05,26,16.10
2015,08,19,05,27,16.10
2015,08,19,05,28,16.00
2015,08,19,05,29,16.00
2015,08,19,05,30,16.00
2015,08,19,05,31,16.00
2015,08,19,05,32,16.00
2015,08,19,05,33,16.00
2015,08,19,05,34,16.00
2015,08,19,05,35,16.00
2015,08,19,05,36,16.00
2015,08,19,05,37,16.00
2015,08,19,05,38,16.00
2015,08,19,05,39,16.00
2015,08,19,05,40,16.00
2015,08,19,05,41,16.00
2015,08,19,05,42,15.90
2015,08,19,05,43,15.90
2015,08,19,05,44,15.90
2015,08,19,05,45,15.90
2015,08,19,05,46,15.90
2015,08,19,05,47,15.90
2015,08,19,05,48,15.90
2015,08,19,05,49,15.90
2015,08,19,05,50,15.90
2015,08,19,05,51,15.90
2015,08,19,05,52,15.90
2015,08,19,05,53,15.90
2015,08,19,05,54,15.90
2015,08,19,05,55,15.90
2015,08,19,05,56,15.90
2015,08,19,05,57,15.90
2015,08,19,05,58,15.90
2015,08,19,05,59,15.90
2015,08,19,06,00,15.90
2015,08,19,06,01,15.80
2015,08,19,06,02,15.80
2015,08,19,06,03,15.80
2015,08,19,06,04,15.80
2015,08,19,06,05,15.80
2015,08,19,06,06,15.80
2015,08,19,06,07,15.80
2015,08,19,06,08,15.80
2015,08,19,06,09,15.80
2015,08,19,06,10,15.80
2015,08,19,06,11,15.80
2015,08,19,06,12,15.80
2015,08,19,06,13,15.80
2015,08,19,06,14,15.70
2015,08,19,06,15,15.70
2015,08,19,06,16,15.70
2015,08,19,06,17,15.70
2015,08,19,06,18,15.70
2015,08,19,06,19,15.70
2015,08,19,06,20,15.70
2015,08,19,06,21,15.70
2015,08,19,06,22,15.70
2015,08,19,06,23,15.70
2015,08,19,06,24,15.60
2015,08,19,06,25,15.60
2015,08,19,06,26,15.60
2015,08,19,06,27,15.60
2015,08,19,06,28,15.60
2015,08,19,06,29,15.60
2015,08,19,06,30,15.60
2015,08,19,06,31,15.60
2015,08,19,06,32,15.60
2015,08,19,06,33,15.60
2015,08,19,06,34,15.60
2015,08,19,06,35,15.60
2015,08,19,06,36,15.60
2015,08,19,06,37,15.60
2015,08,19,06,38,15.60
2015,08,19,06,39,15.60
2015,08,19,06,40,15.60
2015,08,19,06,41,15.60
2015,08,19,06,42,15.60
2015,08,19,06,43,15.60
2015,08,19,06,44,15.60
2015,08,19,06,45,15.60
2015,08,19,06,46,15.60
2015,08,19,06,47,15.60
2015,08,19,06,48,15.50
2015,08,19,06,49,15.50
2015,08,19,06,50,15.50
2015,08,19,06,51,15.50
2015,08,19,06,52,15.50
2015,08,19,06,53,15.50
2015,08,19,06,54,15.50
2015,08,19,06,55,15.50
2015,08,19,06,56,15.50
2015,08,19,06,57,15.50
2015,08,19,06,58,15.50
2015,08,19,06,59,15.50
2015,08,19,07,00,15.50
2015,08,19,07,01,15.50
2015,08,19,07,02,15.50
2015,08,19,07,03,15.60
2015,08,19,07,04,15.60
2015,08,19,07,05,15.60
2015,08,19,07,06,15.60
2015,08,19,07,07,15.60
2015,08,19,07,08,15.60
2015,08,19,07,09,15.60
2015,08,19,07,10,15.70
2015,08,19,07,11,15.70
2015,08,19,07,12,15.70
2015,08,19,07,13,15.80
2015,08,19,07,14,15.80
2015,08,19,07,15,15.90
2015,08,19,07,16,15.90
2015,08,19,07,17,15.90
2015,08,19,07,18,16.00
2015,08,19,07,19,16.00
2015,08,19,07,20,16.10
2015,08,19,07,21,16.10
2015,08,19,07,22,16.10
2015,08,19,07,23,16.10
2015,08,19,07,24,16.20
2015,08,19,07,25,16.20
2015,08,19,07,26,16.30
2015,08,19,07,27,16.40
2015,08,19,07,28,16.40
2015,08,19,07,29,16.50
2015,08,19,07,30,16.60
2015,08,19,07,31,16.70
2015,08,19,07,32,16.80
2015,08,19,07,33,16.80
2015,08,19,07,34,16.90
2015,08,19,07,35,17.00
2015,08,19,07,36,17.10
2015,08,19,07,37,17.20
2015,08,19,07,38,17.20
2015,08,19,07,39,17.30
2015,08,19,07,40,17.30
2015,08,19,07,41,17.40
2015,08,19,07,42,17.40
2015,08,19,07,43,17.50
2015,08,19,07,44,17.60
2015,08,19,07,45,17.70
2015,08,19,07,46,17.70
2015,08,19,07,47,17.80
2015,08,19,07,48,17.90
2015,08,19,07,49,18.00
2015,08,19,07,50,18.10
2015,08,19,07,51,18.10
2015,08,19,07,52,18.20
2015,08,19,07,53,18.20
2015,08,19,07,54,18.30
2015,08,19,07,55,18.30
2015,08,19,07,56,18.40
2015,08,19,07,57,18.40
2015,08,19,07,58,18.50
2015,08,19,07,59,18.50
2015,08,19,08,00,18.60
2015,08,19,08,01,18.70
2015,08,19,08,02,18.70
2015,08,19,08,03,18.80
2015,08,19,08,04,18.80
2015,08,19,08,05,18.80
2015,08,19,08,06,18.90
2015,08,19,08,07,18.90
2015,08,19,08,08,18.90
2015,08,19,08,09,19.00
2015,08,19,08,10,19.00
2015,08,19,08,11,19.10
2015,08,19,08,12,19.20
2015,08,19,08,13,19.20
2015,08,19,08,14,19.30
2015,08,19,08,15,19.30
2015,08,19,08,16,19.30
2015,08,19,08,17,19.40
2015,08,19,08,18,19.40
2015,08,19,08,19,19.50
2015,08,19,08,20,19.50
2015,08,19,08,21,19.60
2015,08,19,08,22,19.70
2015,08,19,08,23,19.70
2015,08,19,08,24,19.80
2015,08,19,08,25,19.90
2015,08,19,08,26,19.90
2015,08,19,08,27,20.00
2015,08,19,08,28,20.10
2015,08,19,08,29,20.10
2015,08,19,08,30,20.20
2015,08,19,08,31,20.20
2015,08,19,08,32,20.30
2015,08,19,08,33,20.40
2015,08,19,08,34,20.40
2015,08,19,08,35,20.40
2015,08,19,08,36,20.50
2015,08,19,08,37,20.50
2015,08,19,08,38,20.60
2015,08,19,08,39,20.70
2015,08,19,08,40,20.70
2015,08,19,08,41,20.80
2015,08,19,08,42,20.80
2015,08,19,08,43,20.90
2015,08,19,08,44,20.90
2015,08,19,08,45,21.00
2015,08,19,08,46,21.00
2015,08,19,08,47,21.10
2015,08,19,08,48,21.10
2015,08,19,08,49,21.10
2015,08,19,08,50,21.20
2015,08,19,08,51,21.20
2015,08,19,08,52,21.20
2015,08,19,08,53,21.20
2015,08,19,08,54,21.20
2015,08,19,08,55,21.30
2015,08,19,08,56,21.30
2015,08,19,08,57,21.30
2015,08,19,08,58,21.30
2015,08,19,08,59,21.30
2015,08,19,09,00,21.30
2015,08,19,09,01,21.30
2015,08,19,09,02,21.40
2015,08,19,09,03,21.40
2015,08,19,09,04,21.40
2015,08,19,09,05,21.40
2015,08,19,09,06,21.40
2015,08,19,09,07,21.50
2015,08,19,09,08,21.50
2015,08,19,09,09,21.60
2015,08,19,09,10,21.60
2015,08,19,09,11,21.70
2015,08,19,09,12,21.70
2015,08,19,09,13,21.80
2015,08,19,09,14,21.80
2015,08,19,09,15,21.90
2015,08,19,09,16,21.90
2015,08,19,09,17,22.00
2015,08,19,09,18,22.00
2015,08,19,09,19,22.10
2015,08,19,09,20,22.10
2015,08,19,09,21,22.20
2015,08,19,09,22,22.20
2015,08,19,09,23,22.20
2015,08,19,09,24,22.30
2015,08,19,09,25,22.40
2015,08,19,09,26,22.40
2015,08,19,09,27,22.50
2015,08,19,09,28,22.50
2015,08,19,09,29,22.60
2015,08,19,09,30,22.70
2015,08,19,09,31,22.70
2015,08,19,09,32,22.70
2015,08,19,09,33,22.80
2015,08,19,09,34,22.80
2015,08,19,09,35,22.80
2015,08,19,09,36,22.80
2015,08,19,09,37,22.80
2015,08,19,09,38,22.90
2015,08,19,09,39,22.90
2015,08,19,09,40,22.90
2015,08,19,09,41,23.00
2015,08,19,09,42,23.00
2015,08,19,09,43,23.10
2015,08,19,09,44,23.10
2015,08,19,09,45,23.10
2015,08,19,09,46,23.20
2015,08,19,09,47,23.20
2015,08,19,09,48,23.20
2015,08,19,09,49,23.20
2015,08,19,09,50,23.30
2015,08,19,09,51,23.30
2015,08,19,09,52,23.30
2015,08,19,09,53,23.30
2015,08,19,09,54,23.30
2015,08,19,09,55,23.30
2015,08,19,09,56,23.40
2015,08,19,09,57,23.40
2015,08,19,09,58,23.50
2015,08,19,09,59,23.60
2015,08,19,10,00,23.60
2015,08,19,10,01,23.60
2015,08,19,10,02,23.60
2015,08,19,10,03,23.70
2015,08,19,10,04,23.70
2015,08,19,10,05,23.70
2015,08,19,10,06,23.70
2015,08,19,10,07,23.70
2015,08,19,10,08,23.70
2015,08,19,10,09,23.80
2015,08,19,10,10,23.80
2015,08,19,10,11,23.80
2015,08,19,10,12,23.90
2015,08,19,10,13,23.90
2015,08,19,10,14,23.90
2015,08,19,10,15,24.00
2015,08,19,10,16,24.00
2015,08,19,10,17,24.00
2015,08,19,10,18,24.10
2015,08,19,10,19,24.10
2015,08,19,10,20,24.10
2015,08,19,10,21,24.10
2015,08,19,10,22,24.10
2015,08,19,10,23,24.10
2015,08,19,10,24,24.10
2015,08,19,10,25,24.10
2015,08,19,10,26,24.20
2015,08,19,10,27,24.20
2015,08,19,10,28,24.20
2015,08,19,10,29,24.30
2015,08,19,10,30,24.30
2015,08,19,10,31,24.40
2015,08,19,10,32,24.40
2015,08,19,10,33,24.40
2015,08,19,10,34,24.40
2015,08,19,10,35,24.40
2015,08,19,10,36,24.50
2015,08,19,10,37,24.50
2015,08,19,10,38,24.60
2015,08,19,10,39,24.70
2015,08,19,10,40,24.70
2015,08,19,10,41,24.80
2015,08,19,10,42,24.90
2015,08,19,10,43,24.90
2015,08,19,10,44,25.00
2015,08,19,10,45,25.00
2015,08,19,10,46,25.10
2015,08,19,10,47,25.10
2015,08,19,10,48,25.10
2015,08,19,10,49,25.20
2015,08,19,10,50,25.20
2015,08,19,10,51,25.30
2015,08,19,10,52,25.30
2015,08,19,10,53,25.30
2015,08,19,10,54,25.40
2015,08,19,10,55,25.40
2015,08,19,10,56,25.50
2015,08,19,10,57,25.50
2015,08,19,10,58,25.60
2015,08,19,10,59,25.70
2015,08,19,11,00,25.80
2015,08,19,11,01,25.80
2015,08,19,11,02,25.80
2015,08,19,11,03,25.80
2015,08,19,11,04,25.80
2015,08,19,11,05,25.80
2015,08,19,11,06,25.80
2015,08,19,11,07,25.80
2015,08,19,11,08,25.80
2015,08,19,11,09,25.80
2015,08,19,11,10,25.80
2015,08,19,11,11,25.70
2015,08,19,11,12,25.70
2015,08,19,11,13,25.70
2015,08,19,11,14,25.60
2015,08,19,11,15,25.60
2015,08,19,11,16,25.60
2015,08,19,11,17,25.60
2015,08,19,11,18,25.60
2015,08,19,11,19,25.60
2015,08,19,11,20,25.50
2015,08,19,11,21,25.50
2015,08,19,11,22,25.50
2015,08,19,11,23,25.60
2015,08,19,11,24,25.70
2015,08,19,11,25,25.70
2015,08,19,11,26,25.80
2015,08,19,11,27,25.90
2015,08,19,11,28,25.90
2015,08,19,11,29,25.90
2015,08,19,11,30,25.80
2015,08,19,11,31,25.80
2015,08,19,11,32,25.70
2015,08,19,11,33,25.70
2015,08,19,11,34,25.60
2015,08,19,11,35,25.50
2015,08,19,11,36,25.40
2015,08,19,11,37,25.40
2015,08,19,11,38,25.30
2015,08,19,11,39,25.30
2015,08,19,11,40,25.30
2015,08,19,11,41,25.30
2015,08,19,11,42,25.30
2015,08,19,11,43,25.40
2015,08,19,11,44,25.40
2015,08,19,11,45,25.40
2015,08,19,11,46,25.30
2015,08,19,11,47,25.30
2015,08,19,11,48,25.30
2015,08,19,11,49,25.30
2015,08,19,11,50,25.30
2015,08,19,11,51,25.40
2015,08,19,11,52,25.40
2015,08,19,11,53,25.50
2015,08,19,11,54,25.60
2015,08,19,11,55,25.50
2015,08,19,11,56,25.50
2015,08,19,11,57,25.50
2015,08,19,11,58,25.50
2015,08,19,11,59,25.50
2015,08,19,12,00,25.40
2015,08,19,12,01,25.30
2015,08,19,12,02,25.30
2015,08,19,12,03,25.30
2015,08,19,12,04,25.20
2015,08,19,12,05,25.20
2015,08,19,12,06,25.20
2015,08,19,12,07,25.10
2015,08,19,12,08,25.10
2015,08,19,12,09,25.10
2015,08,19,12,10,25.10
2015,08,19,12,11,25.10
2015,08,19,12,12,25.20
2015,08,19,12,13,25.20
2015,08,19,12,14,25.20
2015,08,19,12,15,25.30
2015,08,19,12,16,25.30
2015,08,19,12,17,25.30
2015,08,19,12,18,25.30
2015,08,19,12,19,25.40
2015,08,19,12,20,25.50
2015,08,19,12,21,25.60
2015,08,19,12,22,25.70
2015,08,19,12,23,25.70
2015,08,19,12,24,25.80
2015,08,19,12,25,25.90
2015,08,19,12,26,26.00
2015,08,19,12,27,26.20
2015,08,19,12,28,26.30
2015,08,19,12,29,26.50
2015,08,19,12,30,26.60
2015,08,19,12,31,26.70
2015,08,19,12,32,26.80
2015,08,19,12,33,26.80
2015,08,19,12,34,26.90
2015,08,19,12,35,26.90
2015,08,19,12,36,26.90
2015,08,19,12,37,27.00
2015,08,19,12,38,27.10
2015,08,19,12,39,27.20
2015,08,19,12,40,27.20
2015,08,19,12,41,27.20
2015,08,19,12,42,27.10
2015,08,19,12,43,27.10
2015,08,19,12,44,27.00
2015,08,19,12,45,27.10
2015,08,19,12,46,27.10
2015,08,19,12,47,27.10
2015,08,19,12,48,27.00
2015,08,19,12,49,27.00
2015,08,19,12,50,26.90
2015,08,19,12,51,26.90
2015,08,19,12,52,26.90
2015,08,19,12,53,26.90
2015,08,19,12,54,26.90
2015,08,19,12,55,26.80
2015,08,19,12,56,26.80
2015,08,19,12,57,26.80
2015,08,19,12,58,26.70
2015,08,19,12,59,26.70
2015,08,19,13,00,26.60
2015,08,19,13,01,26.60
2015,08,19,13,02,26.60
2015,08,19,13,03,26.60
2015,08,19,13,04,26.60
2015,08,19,13,05,26.60
2015,08,19,13,06,26.70
2015,08,19,13,07,26.70
2015,08,19,13,08,26.70
2015,08,19,13,09,26.70
2015,08,19,13,10,26.70
2015,08,19,13,11,26.70
2015,08,19,13,12,26.70
2015,08,19,13,13,26.70
2015,08,19,13,14,26.70
2015,08,19,13,15,26.70
2015,08,19,13,16,26.80
2015,08,19,13,17,26.90
2015,08,19,13,18,26.90
2015,08,19,13,19,26.90
2015,08,19,13,20,26.90
2015,08,19,13,21,26.90
2015,08,19,13,22,27.00
2015,08,19,13,23,27.10
2015,08,19,13,24,27.10
2015,08,19,13,25,27.20
2015,08,19,13,26,27.20
2015,08,19,13,27,27.30
2015,08,19,13,28,27.30
2015,08,19,13,29,27.40
2015,08,19,13,30,27.50
2015,08,19,13,31,27.60
2015,08,19,13,32,27.60
2015,08,19,13,33,27.50
2015,08,19,13,34,27.50
2015,08,19,13,35,27.40
2015,08,19,13,36,27.40
2015,08,19,13,37,27.40
2015,08,19,13,38,27.40
2015,08,19,13,39,27.50
2015,08,19,13,40,27.40
2015,08,19,13,41,27.50
2015,08,19,13,42,27.50
2015,08,19,13,43,27.50
2015,08,19,13,44,27.60
2015,08,19,13,45,27.70
2015,08,19,13,46,27.80
2015,08,19,13,47,27.90
2015,08,19,13,48,27.90
2015,08,19,13,49,27.90
2015,08,19,13,50,27.90
2015,08,19,13,51,27.90
2015,08,19,13,52,27.90
2015,08,19,13,53,27.90
2015,08,19,13,54,27.90
2015,08,19,13,55,28.00
2015,08,19,13,56,28.10
2015,08,19,13,57,28.20
2015,08,19,13,58,28.30
2015,08,19,13,59,28.40
2015,08,19,14,00,28.40
2015,08,19,14,01,28.40
2015,08,19,14,02,28.40
2015,08,19,14,03,28.40
2015,08,19,14,04,28.30
2015,08,19,14,05,28.40
2015,08,19,14,06,28.30
2015,08,19,14,07,28.30
2015,08,19,14,08,28.30
2015,08,19,14,09,28.30
2015,08,19,14,10,28.20
2015,08,19,14,11,28.20
2015,08,19,14,12,28.20
2015,08,19,14,13,28.20
2015,08,19,14,14,28.20
2015,08,19,14,15,28.20
2015,08,19,14,16,28.10
2015,08,19,14,17,28.10
2015,08,19,14,18,28.10
2015,08,19,14,19,28.00
2015,08,19,14,20,27.90
2015,08,19,14,21,27.90
2015,08,19,14,22,27.80
2015,08,19,14,23,27.80
2015,08,19,14,24,27.80
2015,08,19,14,25,27.80
2015,08,19,14,26,27.90
2015,08,19,14,27,27.80
2015,08,19,14,28,27.80
2015,08,19,14,29,27.80
2015,08,19,14,30,27.80
2015,08,19,14,31,27.80
2015,08,19,14,32,27.80
2015,08,19,14,33,27.80
2015,08,19,14,34,27.80
2015,08,19,14,35,27.80
2015,08,19,14,36,27.80
2015,08,19,14,37,27.70
2015,08,19,14,38,27.70
2015,08,19,14,39,27.70
2015,08,19,14,40,27.70
2015,08,19,14,41,27.70
2015,08,19,14,42,27.70
2015,08,19,14,43,27.60
2015,08,19,14,44,27.60
2015,08,19,14,45,27.60
2015,08,19,14,46,27.50
2015,08,19,14,47,27.50
2015,08,19,14,48,27.50
2015,08,19,14,49,27.60
2015,08,19,14,50,27.50
2015,08,19,14,51,27.50
2015,08,19,14,52,27.50
2015,08,19,14,53,27.40
2015,08,19,14,54,27.50
2015,08,19,14,55,27.50
2015,08,19,14,56,27.50
2015,08,19,14,57,27.60
2015,08,19,14,58,27.60
2015,08,19,14,59,27.60
2015,08,19,15,00,27.60
2015,08,19,15,01,27.60
2015,08,19,15,02,27.70
2015,08,19,15,03,27.70
2015,08,19,15,04,27.70
2015,08,19,15,05,27.70
2015,08,19,15,06,27.70
2015,08,19,15,07,27.70
2015,08,19,15,08,27.80
2015,08,19,15,09,27.80
2015,08,19,15,10,27.80
2015,08,19,15,11,27.80
2015,08,19,15,12,27.80
2015,08,19,15,13,27.70
2015,08,19,15,14,27.60
2015,08,19,15,15,27.60
2015,08,19,15,16,27.50
2015,08,19,15,17,27.50
2015,08,19,15,18,27.40
2015,08,19,15,19,27.40
2015,08,19,15,20,27.40
2015,08,19,15,21,27.40
2015,08,19,15,22,27.30
2015,08,19,15,23,27.30
2015,08,19,15,24,27.30
2015,08,19,15,25,27.30
2015,08,19,15,26,27.20
2015,08,19,15,27,27.20
2015,08,19,15,28,27.10
2015,08,19,15,29,27.00
2015,08,19,15,30,27.00
2015,08,19,15,31,26.90
2015,08,19,15,32,26.80
2015,08,19,15,33,26.80
2015,08,19,15,34,26.80
2015,08,19,15,35,26.80
2015,08,19,15,36,26.70
2015,08,19,15,37,26.60
2015,08,19,15,38,26.50
2015,08,19,15,39,26.40
2015,08,19,15,40,26.30
2015,08,19,15,41,26.20
2015,08,19,15,42,26.20
2015,08,19,15,43,26.10
2015,08,19,15,44,26.10
2015,08,19,15,45,26.10
2015,08,19,15,46,26.00
2015,08,19,15,47,26.10
2015,08,19,15,48,26.10
2015,08,19,15,49,26.20
2015,08,19,15,50,26.20
2015,08,19,15,51,26.20
2015,08,19,15,52,26.30
2015,08,19,15,53,26.40
2015,08,19,15,54,26.40
2015,08,19,15,55,26.50
2015,08,19,15,56,26.50
2015,08,19,15,57,26.50
2015,08,19,15,58,26.60
2015,08,19,15,59,26.60
2015,08,19,16,00,26.60
2015,08,19,16,01,26.60
2015,08,19,16,02,26.60
2015,08,19,16,03,26.60
2015,08,19,16,04,26.60
2015,08,19,16,05,26.70
2015,08,19,16,06,26.70
2015,08,19,16,07,26.70
2015,08,19,16,08,26.70
2015,08,19,16,09,26.70
2015,08,19,16,10,26.70
2015,08,19,16,11,26.70
2015,08,19,16,12,26.70
2015,08,19,16,13,26.70
2015,08,19,16,14,26.70
2015,08,19,16,15,26.70
2015,08,19,16,16,26.60
2015,08,19,16,17,26.70
2015,08,19,16,18,26.70
2015,08,19,16,19,26.70
2015,08,19,16,20,26.70
2015,08,19,16,21,26.70
2015,08,19,16,22,26.70
2015,08,19,16,23,26.70
2015,08,19,16,24,26.60
2015,08,19,16,25,26.60
2015,08,19,16,26,26.50
2015,08,19,16,27,26.50
2015,08,19,16,28,26.50
2015,08,19,16,29,26.50
2015,08,19,16,30,26.60
2015,08,19,16,31,26.60
2015,08,19,16,32,26.60
2015,08,19,16,33,26.70
2015,08,19,16,34,26.70
2015,08,19,16,35,26.70
2015,08,19,16,36,26.70
2015,08,19,16,37,26.70
2015,08,19,16,38,26.70
2015,08,19,16,39,26.70
2015,08,19,16,40,26.70
2015,08,19,16,41,26.70
2015,08,19,16,42,26.80
2015,08,19,16,43,26.90
2015,08,19,16,44,26.90
2015,08,19,16,45,26.90
2015,08,19,16,46,26.90
2015,08,19,16,47,26.90
2015,08,19,16,48,26.90
2015,08,19,16,49,26.90
2015,08,19,16,50,27.00
2015,08,19,16,51,27.00
2015,08,19,16,52,27.00
2015,08,19,16,53,27.00
2015,08,19,16,54,27.00
2015,08,19,16,55,27.00
2015,08,19,16,56,27.00
2015,08,19,16,57,27.00
2015,08,19,16,58,27.00
2015,08,19,16,59,27.10
2015,08,19,17,00,27.10
2015,08,19,17,01,27.20
2015,08,19,17,02,27.20
2015,08,19,17,03,27.20
2015,08,19,17,04,27.20
2015,08,19,17,05,27.30
2015,08,19,17,06,27.20
2015,08,19,17,07,27.20
2015,08,19,17,08,27.20
2015,08,19,17,09,27.20
2015,08,19,17,10,27.20
2015,08,19,17,11,27.20
2015,08,19,17,12,27.20
2015,08,19,17,13,27.20
2015,08,19,17,14,27.10
2015,08,19,17,15,27.10
2015,08,19,17,16,27.00
2015,08,19,17,17,27.00
2015,08,19,17,18,27.00
2015,08,19,17,19,27.00